This demonstration page uses our WeatherBlox Daily Observations layout. Learn more.

Left ArrowRight Arrow

Hourly Observations for January 5, 2020

Temp ( °F °C ) Dew Point ( °F °C ) Humidity (%) Winds ( mph kmh ) Pressure ( in mb ) Visibility ( mi km ) Precip ( " mm )
12:53 am 00:53 Clear 36 2.2 24 -4.4 62 62 WNW 6 9 30.23 1024 10 16 0.00 0.00
1:53 am 01:53 Clear 35 1.7 25 -3.9 67 67 W 3 6 30.23 1024 10 16 0.00 0.00
2:53 am 02:53 Clear 34 1.1 25 -3.9 70 70 SSW 5 7 30.25 1024 10 16 0.00 0.00
3:53 am 03:53 Clear 34 1.1 25 -3.9 70 70 SW 3 6 30.28 1025 10 16 0.00 0.00
4:53 am 04:53 Clear 33 0.6 25 -3.9 72 72 SW 5 7 30.30 1026 10 16 0.00 0.00
5:53 am 05:53 Clear 32 0 25 -3.9 75 75 WSW 5 7 30.32 1027 10 16 0.00 0.00
6:53 am 06:53 Clear 32 0 25 -3.9 75 75 SW 3 6 30.33 1027 10 16 0.00 0.00
7:53 am 07:53 Sunny 32 0 26 -3.3 79 79 WSW 3 6 30.35 1028 10 16 0.00 0.00
8:53 am 08:53 Sunny 35 1.7 27 -2.8 72 72 WNW 6 9 30.36 1028 10 16 0.00 0.00
9:53 am 09:53 Sunny 39 3.9 28 -2.2 65 65 WNW 10 17 30.40 1030 10 16 0.00 0.00
10:53 am 10:53 Sunny 43 6.1 29 -1.7 58 58 NNW 9 15 30.40 1029 10 16 0.00 0.00
11:53 am 11:53 Sunny 45 7.2 29 -1.7 54 54 NW 9 15 30.37 1029 10 16 0.00 0.00
12:53 pm 12:53 Sunny 48 8.9 28 -2.2 46 46 WNW 14 22 30.33 1027 10 16 0.00 0.00
1:53 pm 13:53 Sunny 50 10 28 -2.2 43 43 NNW 9 15 30.29 1026 10 16 0.00 0.00
2:53 pm 14:53 Sunny 52 11.1 26 -3.3 37 37 W 6 9 30.26 1025 10 16 0.00 0.00
3:53 pm 15:53 Sunny 54 12.2 27 -2.8 35 35 NW 12 19 30.25 1024 10 16 0.00 0.00
4:53 pm 16:53 Sunny 54 12.2 25 -3.9 33 33 W 8 13 30.25 1024 10 16 0.00 0.00
5:53 pm 17:53 Clear 50 10 29 -1.7 44 44 Calm 30.25 1024 10 16 0.00 0.00
6:53 pm 18:53 Clear 45 7.2 31 -0.6 58 58 Calm 30.26 1025 10 16 0.00 0.00
7:53 pm 19:53 Clear 40 4.4 32 0 73 73 Calm 30.25 1024 10 16 0.00 0.00
8:53 pm 20:53 Clear 38 3.3 32 0 79 79 SW 3 6 30.25 1024 10 16 0.00 0.00
9:53 pm 21:53 Clear 37 2.8 32 0 82 82 Calm 30.24 1024 10 16 0.00 0.00
10:53 pm 22:53 Clear 39 3.9 31 -0.6 73 73 Calm 30.23 1024 10 16 0.00 0.00
11:53 pm 23:53 Clear 36 2.2 31 -0.6 82 82 SW 3 6 30.22 1023 10 16 0.00 0.00

Powered by AerisWeather